Regional Weather Roundup
Issued by NWS

Home | Current Version | Previous Version | Text Only | Print | Product List | Glossary On
Versions: 1 2 3 4 5 6 7 8 9 10 11 12 13 14 15 16 17 18 19 20 21 22 23 24 25 26 27 28 29 30 31 32 33 34 35 36 37 38 39 40 41 42 43 44 45 46 47 48 49 50
000
ASUS43 KMPX 210501
RWRMN
WEATHER ROUNDUP FOR MINNESOTA
NATIONAL WEATHER SERVICE TWIN CITIES/CHANHASSEN MN
1200 AM CDT THU AUG 21 2014


NOTE: "FAIR" INDICATES FEW OR NO CLOUDS BELOW 12,000 FEET WITH NO
SIGNIFICANT WEATHER AND/OR OBSTRUCTIONS TO VISIBILITY. N/A MEANS
CURRENT SKY AND/OR WEATHER CONDITIONS ARE NOT AVAILABLE.

MNZ060>063-068>070-210600-
   Twin Cities Metro

CITY           SKY/WX    TMP DP  RH WIND       PRES   REMARKS
TWIN CITIES    MOCLDY    72  65  78 E12       29.87S
ST PAUL        MOCLDY    72  64  76 SE9       29.88S
CRYSTAL        MOCLDY    73  64  73 E7        29.86S
BLAINE         PTCLDY    72  66  83 E7        29.88S
LAKEVILLE      MOCLDY    66  66 100 E3        29.88S
EDEN PRAIRIE   MOCLDY    74  66  76 E9        29.86S
SOUTH ST PAUL  MOCLDY    72  64  75 CALM      29.88R
LAKE ELMO      FAIR      70  63  78 E6        29.90S
$$
MNZ001>005-007-008-013>017-022>024-027-028-210600-
   Northwest Minnesota

CITY           SKY/WX    TMP DP  RH WIND       PRES   REMARKS
BEMIDJI        PTCLDY    65  63  91 SE8       29.88S
HALLOCK        MOCLDY    72  64  78 SE9       29.80S
ROSEAU         PTCLDY    66  61  82 SE7       29.85F
WARROAD        PTCLDY    66  63  88 SE7       29.86F
THIEF RVR FALL PTCLDY    66  63  88 SE8       29.84R
CROOKSTON      MOCLDY    68  64  88 SE8       29.83R
FOSSTON        PTCLDY    66  61  82 SE6       29.86R
DETROIT LAKES  PTCLDY    70  64  83 SE13      29.85S
MOORHEAD       CLOUDY    73  70  88 SE8       29.79S
PARK RAPIDS    PTCLDY    68  63  84 SE7       29.88R
MAHNOMEN       FAIR      68  65  88 SE10      29.84R
$$
MNZ006-009>011-018-025>026-210600-
   North Central Minnesota

CITY           SKY/WX    TMP DP  RH WIND       PRES   REMARKS
BAUDETTE       CLEAR     64  60  87 CALM      29.89R
FLAG ISLAND    CLEAR     72  63  73 SE14      29.86R
INTL FALLS     CLEAR     56  55  97 CALM      29.90R
WASKISH        CLOUDY    64  61  88 CALM      29.89S
BIG FORK       PTCLDY    63  59  88 CALM      29.92R
LONGVILLE      MOCLDY    63  63 100 SE3       29.90R
GRAND RAPIDS   PTCLDY    61  57  88 SE7       29.92R
CRANE LAKE     CLEAR     55  55 100 CALM      29.94R
ORR            CLEAR     61  57  88 SE3       29.90S
COOK           CLEAR     61  57  88 CALM      29.93S
WALKER         FAIR      66  63  89 SE5       29.88S
$$
MNZ012-019>021-037-210600-
   Northeast Minnesota

CITY           SKY/WX    TMP DP  RH WIND       PRES   REMARKS
DULUTH         CLOUDY    62  59  90 E9        29.94S
ELY            CLEAR     61  57  88 CALM      29.95S
HIBBING        PTCLDY    58  55  90 SE5       29.93S
EVELETH        PTCLDY    57  55  94 CALM      29.95R
DULUTH HARBOR  MOCLDY    63  61  94 NE12      29.94S
TWO HARBORS    CLOUDY    61  55  82 E7        29.94R
SILVER BAY     CLOUDY    59  59 100 CALM      29.95R FOG
GRAND MARAIS     N/A     61  59  93 CALM      29.95S
G MARAIS ARPRT CLOUDY    57  55  94 CALM      29.98S FOG
$$
MNZ029>031-032-039>041-046>048-054>057-064-210600-
   West Central Minnesota

CITY           SKY/WX    TMP DP  RH WIND       PRES   REMARKS
FERGUS FALLS   MOCLDY    73  63  68 E14       29.79F
WHEATON        CLOUDY    72  66  83 SE12G18   29.78S
MORRIS         MOCLDY    73  68  83 E12       29.77F
ALEXANDRIA     CLOUDY    71  65  81 E15       29.84F
ELBOW LAKE     MOCLDY    73  66  80 E13       29.79F
WADENA         PTCLDY    66  63  88 E9        29.85S
GLENWOOD       MOCLDY    70  66  88 E12       29.83F
APPLETON       MOCLDY    73  68  83 SE10G17   29.76F
BENSON         MOCLDY    73  68  83 SE9G17    29.79F
ORTONVILLE     TSTM      73  68  83 SE13      29.73F
MADISON        PTCLDY    75  70  83 SE10      29.75F
WILLMAR        FAIR      73  66  78 E12       29.83S
$$
MNZ033>034-036-042>043-049>051-058-059-210600-
   Central Minnesota

CITY           SKY/WX    TMP DP  RH WIND       PRES   REMARKS
ST CLOUD       MOCLDY    71  65  81 E8        29.87R
SAUK CENTRE    MOCLDY    69  64  85 E9        29.85S
PAYNESVILLE    MOCLDY    69  65  86 NE12      29.85S
AITKIN         MOCLDY    66  61  82 E5        29.90R
PINE RIVER     PTCLDY    64  63  94 E9        29.92S
BRAINERD       MOCLDY    67  63  87 VRB6      29.89S
STAPLES        MOCLDY    66  61  82 SE6       29.87R
LONG PRAIRIE   FAIR      66  63  88 E8        29.87S
LITTLE FALLS   PTCLDY    66  61  82 E8        29.87S
LITCHFIELD     MOCLDY    73  72  94 E10       29.85S
BUFFALO        MOCLDY    71  64  80 E5        29.87S
MAPLE LAKE     MOCLDY    72  68  86 E6        29.87S
$$
MNZ037-044-045-052-053-210600-
   East Central Minnesota

CITY           SKY/WX    TMP DP  RH WIND       PRES   REMARKS
PRINCETON      MOCLDY    70  64  83 E5        29.88F
MORA           PTCLDY    64  61  88 E5        29.91F
CAMBRIDGE      PTCLDY    70  61  73 E5        29.87F
RUSH CITY      MOCLDY    65  62  90 E3        29.91S
MOOSE LAKE     PTCLDY    61  59  94 CALM      29.91S
HINCKLEY       CLOUDY    64  63  94 E6        29.91F
CLOQUET        MOCLDY    61  57  88 E3        29.95R
MCGREGOR       MOCLDY    63  61  94 E7        29.92S
$$
MNZ071>073-080-081-089-090-097-098-210600-
   Southwest Minnesota

CITY           SKY/WX    TMP DP  RH WIND       PRES   REMARKS
MONTEVIDEO     PTCLDY    72  70  94 S12       29.79F
GRANITE FALLS  PTCLDY    72  69  89 E8        29.80F
CANBY          PTCLDY    72  69  91 E6        29.77F
MARSHALL       PTCLDY    72  66  83 SE14      29.77F
REDWOOD FALLS  PTCLDY    73  69  87 SE10      29.80F
OLIVIA         PTCLDY    73  68  83 SE8       29.81S
PIPESTONE      MOCLDY    73  70  88 SE8       29.77F THUNDER
WINDOM         CLOUDY    72  68  88 E7        29.82S
WORTHINGTON    MOCLDY    70  12  11 SE8       29.80F
JACKSON        CLOUDY    70  68  94 SE7       29.82S
TRACY          MOCLDY    71  69  91 SE6       29.80S
SLAYTON        MOCLDY    69  68  98 CALM      29.80F
$$
MNZ065>067-074>077-082>085-091>093-210600-
   South Central Minnesota

CITY           SKY/WX    TMP DP  RH WIND       PRES   REMARKS
MANKATO        MOCLDY    72  64  78 E8        29.85S
NEW ULM        PTCLDY    72  70  94 SE9       29.82S
ST JAMES       MOCLDY    72  66  83 E8        29.83S
FAIRMONT       CLOUDY    70  64  83 SE8       29.83F
GLENCOE        MOCLDY    74  68  81 E8        29.84F
FARIBAULT      MOCLDY    73  66  78 CALM      29.87S
OWATONNA       MOCLDY    72  66  83 SE6       29.88S
WASECA         MOCLDY    68  63  83 SE5       29.89R
ALBERT LEA     MOCLDY    70  66  88 SE5       29.88S
$$
MNZ078>079-086>088-094>096-210600-
   Southeast Minnesota

CITY           SKY/WX    TMP DP  RH WIND       PRES   REMARKS
ROCHESTER      MOCLDY    69  66  90 S7        29.90S
RED WING       MOCLDY    72  64  78 E7        29.87S
STANTON        MOCLDY    72  67  83 E5        29.86S
DODGE CENTER   MOCLDY    70  66  88 SE5       29.89F
WINONA         PTCLDY    72  66  83 SE7       29.89F
AUSTIN         MOCLDY    66  66 100 SE5       29.89S
PRESTON        PTCLDY    68  68 100 CALM      29.92R
$$
ABBREVIATIONS USED IN REMARKS
   TC - TEMPERATURES IN CELSIUS
  WCI - WIND CHILL INDEX
   HX - HEAT INDEX
  VSB - VISIBILITY
$$



USA.gov is the U.S. government's official web portal to all federal, state and local government web resources and services.